Regional Weather Roundup
Issued by NWS Little Rock, AR

Home | Current Version | Previous Version | Text Only | Print | Product List | Glossary Off
Versions: 1 2 3 4 5 6 7 8 9 10 11 12 13 14 15 16 17 18 19 20 21 22 23 24 25 26 27 28 29 30 31 32 33 34 35 36 37 38 39 40 41 42 43 44 45 46 47 48 49 50

200
ASUS44 KLZK 302005
RWRLZK

WEATHER ROUNDUP FOR ARKANSAS
NATIONAL WEATHER SERVICE LITTLE ROCK AR
300 PM CDT FRI SEP 30 2016

NOTE: "FAIR" INDICATES FEW OR NO CLOUDS BELOW 12,000 FEET WITH NO
SIGNIFICANT WEATHER AND/OR OBSTRUCTIONS TO VISIBILITY.

ARZ001-003-010-029-302100-
NORTHWEST ARKANSAS

CITY           SKY/WX    TMP DP  RH WIND       PRES   REMARKS
FAYETTEVILLE   MOSUNNY   74  51  44 VRB5      30.13F
FORT SMITH     SUNNY     82  44  26 VRB6      30.09F
HARRISON       MOSUNNY   73  52  47 N7        30.12F
BENTONVILLE    MOSUNNY   73  48  40 N9        30.15F
ROGERS         PTSUNNY   71  53  52 NW9G20    30.14F
SILOAM SPGS    MOSUNNY   73  48  40 N10       30.14F
HIGHFILL       MOSUNNY   76  52  43 N10G17    30.13F
SPRINGDALE     MOSUNNY   75  52  43 NW12G17   30.15F
$$

ARZ004-005-016-302100-
NORTH CENTRAL ARKANSAS

CITY           SKY/WX    TMP DP  RH WIND       PRES   REMARKS
BATESVILLE     PTSUNNY   75  55  50 W8        30.07F
FLIPPIN        CLOUDY    75  52  43 N7        30.08F
MTN HOME       PTSUNNY   73  54  51 VRB5      30.10F
$$

ARZ040-041-302100-
WEST CENTRAL ARKANSAS

CITY           SKY/WX    TMP DP  RH WIND       PRES   REMARKS
MENA           MOSUNNY   79  52  38 CALM      30.12F
MOUNT IDA      MOSUNNY   79  47  32 CALM      30.08F
$$

ARZ009-017-025-026-028-302100-
NORTHEAST ARKANSAS

CITY           SKY/WX    TMP DP  RH WIND       PRES   REMARKS
CORNING          N/A     72  57  60 NW13      30.07F
JONESBORO      PTSUNNY   76  53  44 NW8       30.06F
NEWPORT        CLOUDY    75  56  51 N13       30.06F
WALNUT RIDGE   CLOUDY    73  54  49 NW14      30.07S
BLYTHEVILLE    PTSUNNY   74  53  48 VRB7      30.05F
NW BLYTHEVILLE PTSUNNY   73  54  49 NW8G16    30.05
$$

ARZ022-023-033-042-044-302100-
CENTRAL ARKANSAS

CITY           SKY/WX    TMP DP  RH WIND       PRES   REMARKS
LITTLE ROCK    MOSUNNY   77  55  46 N5G21     30.07F
N LITTLE ROCK    N/A     76  56  48 N6        30.06F
JACKSONVILLE   MOSUNNY   79  54  42 W5        30.06F
SEARCY         PTSUNNY   78  56  46 N6        30.08F
HOT SPRINGS    SUNNY     80  48  32 MISG      30.07F
RUSSELLVILLE   PTSUNNY   77  53  43 NW6       30.07F
$$

ARZ036-302100-
EAST ARKANSAS

CITY           SKY/WX    TMP DP  RH WIND       PRES   REMARKS
WEST MEMPHIS   PTSUNNY   74  52  46 N12       30.05F
$$

ARZ050-053-066-070-073-302100-
SOUTHWEST ARKANSAS

CITY           SKY/WX    TMP DP  RH WIND       PRES   REMARKS
ARKADELPHIA    FAIR      79  53  40 NW8G17    30.08F
TEXARKANA      SUNNY     80  48  32 N6        30.10F
EL DORADO      PTSUNNY   80  53  39 W7        30.09F
DE QUEEN       SUNNY     82  50  32 VRB3      30.08F
$$

ARZ056-057-069-302100-
SOUTHEAST ARKANSAS

CITY           SKY/WX    TMP DP  RH WIND       PRES   REMARKS
PINE BLUFF     MOSUNNY   77  56  48 NW8       30.07F
STUTTGART      PTSUNNY   79  52  38 NW14      30.07F
MONTICELLO     MOSUNNY   80  53  39 NW10      30.06F

$$






USA.gov is the U.S. government's official web portal to all federal, state and local government web resources and services.